Simultaneous Nadir Overpasses (SNOs) Predictions

Prediction of SNOs between GOES-16 and TERRA Satellite Orbit:

Table of predicted SNOs for the next 14.0 days since TLE Epoch: 11/28/2020
Index Date Time (GOES-16) GOES-16 Lat,Lon TERRA Lat,Lon Distance(km) Time Diff (sec)
1 11/30/2020 03:26:50 -0.00, -75.19 0.14, -74.54 73.90 80
2 12/02/2020 03:14:38 0.00, -75.20 0.79, -71.58 412.01 80
3 12/02/2020 15:35:53 -0.01, -75.24 0.33, -76.74 170.50 80
4 12/04/2020 15:26:21 -0.01, -75.26 -0.32, -73.78 168.15 80
5 12/05/2020 03:47:45 0.01, -75.24 -0.78, -78.97 424.61 80
6 12/07/2020 03:35:33 0.01, -75.27 -0.12, -76.02 85.28 80
7 12/09/2020 03:20:40 0.01, -75.30 0.47, -73.06 254.74 80
8 12/09/2020 15:41:55 -0.01, -75.33 0.58, -78.22 327.67 80
9 12/11/2020 15:32:23 -0.01, -75.37 -0.02, -75.26 13.01 80
